Regional Weather Roundup
Issued by NWS

Home | Current Version | Previous Version | Graphics & Text | Print | Product List | Glossary On
Versions: 1 2 3 4 5 6 7 8 9 10 11 12 13 14 15 16 17 18 19 20 21 22 23 24 25 26 27 28 29 30 31 32 33 34 35 36 37 38 39 40 41 42 43 44 45 46 47 48 49 50
000
ASUS43 KIND 242309
RWRIN

WEATHER ROUNDUP FOR INDIANA
NATIONAL WEATHER SERVICE INDIANAPOLIS IN
600 PM EST FRI NOV 24 2017

NOTE: "FAIR" INDICATES FEW OR NO CLOUDS BELOW 12,000 FEET WITH NO
SIGNIFICANT WEATHER AND/OR OBSTRUCTIONS TO VISIBILITY.

* - STATION DOES NOT REPORT WEATHER SUCH AS PRECIPITATION OR FOG.

+ - STATION NOT QUALITY CONTROLLED BY THE NATIONAL WEATHER SERVICE.
    USE DATA WITH CAUTION...ESPECIALLY DEWPOINT AND RELATIVE
    HUMIDITY OBSERVATIONS.

INZ001>003-010>013-019-020-250000-
NORTHWEST INDIANA

CITY           SKY/WX    TMP DP  RH WIND       PRES   REMARKS
GARY /AIRPORT/ PTCLDY    57  34  41 S17G31    29.51F
KNOX *+        CLEAR     54  36  50 S21       29.55F
LA PORTE +     CLEAR     53  36  53 S14G21    29.54F
MICHIGAN CITY+ CLEAR     54  34  47 S16G31    29.52F
MONTICELLO +   CLEAR     54  33  45 S15G23    29.60F
RENSSELAER +   CLEAR     52  28  40 S16G22    29.57F
VALPARAISO     CLEAR     55  37  50 MISG      29.54F

$$

LMZ046-743>745-250000-
SOUTHERN LAKE MICHIGAN

STATION/POSITION TIME  TEMP    WIND        PRES    WAVE
                       AIR SEA DIR/SP/G            HT
                 (UTC) (F)     (DEG/KT/KT) (MB)    (FT)
BURNS HARBOR     2255   55     190/ 20/ 27  999.3F
MICHIGAN CITY    2240   56     160/ 22/ 26   N/A

$$

INZ004-005-014>016-021>024-250000-
NORTH CENTRAL INDIANA

CITY           SKY/WX    TMP DP  RH WIND       PRES   REMARKS
ELKHART        CLEAR     52  36  54 S10       29.56F
GOSHEN         CLOUDY    52  33  48 S18       29.57F
LOGANSPORT +   CLEAR     50  36  57 S17       29.63F
PERU/GRISSOM   CLOUDY    52  35  52 S17G23    29.63F
ROCHESTER +    PTCLDY    54  36  50 S14G22    29.60F
SOUTH BEND     CLEAR     53  36  52 S13       29.56F
WARSAW +       PTCLDY    52  34  50 S8        29.60F

$$

INZ006>009-017-018-025>027-250000-
NORTHEAST INDIANA

CITY           SKY/WX    TMP DP  RH WIND       PRES   REMARKS
AUBURN +       CLEAR     52  32  46 S9        29.64F
FORT WAYNE     CLOUDY    50  35  56 S12       29.67F
HUNTINGTON +   CLEAR     50  32  49 S10G17    29.66F
KENDALLVILLE + CLOUDY    50  34  53 S15       29.62F

$$

INZ028-029-035-036-043>045-051>053-250000-
WEST CENTRAL INDIANA

CITY           SKY/WX    TMP DP  RH WIND       PRES   REMARKS
CRAWFORDSVL +  CLEAR     49  34  55 S13G18    29.66S
GREENCASTLE +  CLEAR     52  32  46 S10       29.71F
LAFAYETTE      CLEAR     52  35  52 S12       29.63F
TERRE HAUTE    CLEAR     52  33  48 S14       29.71F

$$

INZ030>032-037>040-046>048-054>057-064-065-250000-
CENTRAL INDIANA

CITY           SKY/WX    TMP DP  RH WIND       PRES   REMARKS
CP ATTERBURY + CLOUDY    52  30  43 S10       29.76S
COLUMBUS       PTCLDY    52  25  35 S14       29.77S
FISHERS *+     CLEAR     52  36  54 S14       29.71S
FRANKFORT +    PTCLDY    54  37  52 S12G17    29.67F
INDIANAPOLIS   PTCLDY    53  32  44 S13       29.73S
-EAGLE CREEK   CLEAR     55  31  39 S8        29.70F
KOKOMO +       CLEAR     52  35  52 S17       29.66F
MARION +       CLEAR     49  34  56 S15       29.69F
MT COMFORT *+  CLEAR     50  36  57 S12       29.73S
SHELBYVILLE    CLEAR     52  30  43 S12       29.75S
ZIONSVILLE +   CLEAR     52  33  49 S12       29.70S

$$

INZ033-034-041-042-049-050-058-059-250000-
EAST CENTRAL INDIANA

CITY           SKY/WX    TMP DP  RH WIND       PRES   REMARKS
MUNCIE         CLEAR     52  31  44 S14       29.71S
RICHMOND +     CLEAR     41  32  70 S9        29.77S

$$

INZ060-061-067>069-081>083-085>088-250000-
SOUTHWEST INDIANA

CITY           SKY/WX    TMP DP  RH WIND       PRES   REMARKS
EVANSVILLE     CLEAR     56  33  42 S9        29.79S
HUNTINGBURG +  CLEAR     53  33  46 S9        29.80S
WASHINGTON +   CLEAR     48  32  53 S10       29.76F

$$

INZ062-063-066-070>080-084-089>092-250000-
SOUTH CENTRAL AND SOUTHEAST INDIANA

CITY           SKY/WX    TMP DP  RH WIND       PRES   REMARKS
BEDFORD +      CLEAR     52  27  37 S8        29.77F
BLOOMINGTON    CLEAR     52  30  43 S10       29.76S
MADISON *+     CLEAR     50  25  37 S6        29.82F
NORTH VERNON + CLEAR     48  28  46 S8        29.79F
SEYMOUR +      CLEAR     50  30  46 S6        29.79S

$$





USA.gov is the U.S. government's official web portal to all federal, state and local government web resources and services.